Weather in Liegi

Latvia     56°34′44″N   21°20′03″E
temp.,
°C
wind,
m/s
gust,
m/s
humid.,
%
clouds,
%
prec.,
mm/h
press.,
hPa
HPBL,
m
20 april, tue
tue2000:00+8ene36604 0.0 1021103
03:00+7e34625 0.0 102052
06:00+6e226683 0.0 101930
09:00+11ene235395 0.0 1018208
12:00+15ne2341100 0.0 10161006
15:00+16nw2237100 0.0 10151911
18:00+14n3449100 0.0 1014602
21:00+10nnw2262100 0.0 101338
21 april, wed
wed2100:00+8nw116734 0.0 101211
03:00+6wsw117517 0.0 101112
06:00+4wnw228463 0.0 100925
09:00+9nw24575 0.0 1009298
12:00+12w45445 0.0 1008935
15:00+12wsw57459 0.0 1007840
18:00+10wsw585382 0.0 1006503
21:00+6sw411845 0.0 1006409
22 april, thu
thu2200:00+5sw4117734 0.0 1005476
03:00+4ssw5108461 0.0 1004420
06:00+4ssw5118387 0.1 1004701
09:00+5ssw7128284 0.3 10021096
12:00+6sw8126898 0.5 10031398
15:00+4sw71291100 0.8 1004905
18:00+5wsw7107787 0.5 10061110
21:00+3wsw5993100 0.8 1007689
23 april, fri
fri2300:00+2wsw4997100 0.5 1006648
03:00+2w5109598 1.1 1005674
06:00+2wnw61197100 0.6 1005786
09:00+2wnw61195100 1.5 1007853
12:00+2wnw61093100 1.1 1009850
15:00+4wnw797198 1.8 10111342
18:00+4wnw6970100 0.4 10121336
21:00+3wnw597899 0.8 1013852
24 april, sat
sat2400:00+3wnw5987100 0.6 1012923
03:00+2wnw51292100 1.0 10111149
06:00+2nw71287100 0.4 1011979
09:00+2nw61295100 1.2 1012892
12:00+3nw7981100 1.0 10121098
15:00+3nw6985100 1.7 10131007
18:00+4nw697499 0.6 10141225
21:00+2wnw487996 0.9 1014418